Time,TemperatureF,DewpointF,PressureIn,WindDirection,WindDirectionDegrees,WindSpeedMPH,WindSpeedGustMPH,Humidity,HourlyPrecipIn,Conditions,Clouds,dailyrainin,SoftwareType,DateUTC
2013-04-19 00:01:00,68.0,63.7,29.89,SSW,192,0.0,6.0,86,0.00,,CLR,0.00,VWS V14.00,2013-04-19 04:01:00,
2013-04-19 00:02:00,67.9,63.2,29.89,SE,127,0.0,4.0,85,0.00,,CLR,0.00,VWS V14.00,2013-04-19 04:02:00,
2013-04-19 00:07:00,67.9,63.6,29.89,SSE,152,0.0,4.0,86,0.00,,CLR,0.00,VWS V14.00,2013-04-19 04:07:00,
2013-04-19 00:12:00,67.8,63.5,29.89,SSE,155,2.0,6.0,86,0.00,,CLR,0.00,VWS V14.00,2013-04-19 04:12:00,
2013-04-19 00:17:00,67.7,63.4,29.88,SSE,159,0.0,6.0,86,0.00,,CLR,0.00,VWS V14.00,2013-04-19 04:17:00,
2013-04-19 00:22:00,67.6,63.3,29.88,SSE,153,2.0,6.0,86,0.00,,CLR,0.00,VWS V14.00,2013-04-19 04:22:00,
2013-04-19 00:27:00,67.5,63.2,29.88,South,170,0.0,6.0,86,0.00,,CLR,0.00,VWS V14.00,2013-04-19 04:27:00,
2013-04-19 00:32:00,67.4,63.1,29.88,NW,308,0.0,3.0,86,0.00,,CLR,0.00,VWS V14.00,2013-04-19 04:32:00,
2013-04-19 00:37:00,67.2,62.9,29.88,SE,143,0.0,6.0,86,0.00,,CLR,0.00,VWS V14.00,2013-04-19 04:37:00,
2013-04-19 00:42:00,67.2,63.2,29.88,South,170,0.0,12.0,87,0.00,,CLR,0.00,VWS V14.00,2013-04-19 04:42:00,
2013-04-19 00:47:00,67.2,62.9,29.87,WSW,237,1.0,12.0,86,0.00,,CLR,0.00,VWS V14.00,2013-04-19 04:47:00,
2013-04-19 00:52:00,66.9,62.9,29.87,NE,47,1.0,12.0,87,0.00,,CLR,0.00,VWS V14.00,2013-04-19 04:52:00,
2013-04-19 00:57:00,66.8,62.8,29.87,SSE,164,1.0,12.0,87,0.00,,CLR,0.00,VWS V14.00,2013-04-19 04:57:00,
2013-04-19 01:02:00,66.7,63.0,29.88,SSE,149,0.0,4.0,88,0.00,,CLR,0.00,VWS V14.00,2013-04-19 05:02:00,
2013-04-19 01:07:00,66.7,63.0,29.88,South,183,0.0,4.0,88,0.00,,CLR,0.00,VWS V14.00,2013-04-19 05:07:00,
2013-04-19 01:12:00,66.8,63.1,29.88,South,180,0.0,4.0,88,0.00,,CLR,0.00,VWS V14.00,2013-04-19 05:12:00,
2013-04-19 01:17:00,66.7,62.7,29.87,East,95,0.0,4.0,87,0.00,,CLR,0.00,VWS V14.00,2013-04-19 05:17:00,
2013-04-19 01:22:00,66.6,62.9,29.87,WNW,285,0.0,4.0,88,0.00,,CLR,0.00,VWS V14.00,2013-04-19 05:22:00,
2013-04-19 01:27:00,66.4,62.7,29.87,SE,134,0.0,5.0,88,0.00,,CLR,0.00,VWS V14.00,2013-04-19 05:27:00,
2013-04-19 01:32:00,66.4,62.7,29.86,South,181,1.0,5.0,88,0.00,,CLR,0.00,VWS V14.00,2013-04-19 05:32:00,
2013-04-19 01:37:00,66.4,62.7,29.86,ESE,115,0.0,5.0,88,0.00,,CLR,0.00,VWS V14.00,2013-04-19 05:37:00,
2013-04-19 01:42:00,66.4,62.7,29.86,ENE,69,0.0,5.0,88,0.00,,CLR,0.00,VWS V14.00,2013-04-19 05:42:00,
2013-04-19 01:47:00,66.3,63.0,29.85,SSW,198,0.0,7.0,89,0.00,,CLR,0.00,VWS V14.00,2013-04-19 05:47:00,
2013-04-19 01:52:00,66.2,62.9,29.85,South,184,0.0,7.0,89,0.00,,CLR,0.00,VWS V14.00,2013-04-19 05:52:00,
2013-04-19 01:57:00,66.1,62.8,29.85,SSE,148,2.0,7.0,89,0.00,,CLR,0.00,VWS V14.00,2013-04-19 05:57:00,
2013-04-19 02:02:00,66.1,62.8,29.85,SSW,201,0.0,2.0,89,0.00,,CLR,0.00,VWS V14.00,2013-04-19 06:02:00,
2013-04-19 02:07:00,66.1,62.8,29.85,SSE,155,1.0,4.0,89,0.00,,CLR,0.00,VWS V14.00,2013-04-19 06:07:00,
2013-04-19 02:12:00,66.0,62.7,29.85,North,1,0.0,4.0,89,0.00,,CLR,0.00,VWS V14.00,2013-04-19 06:12:00,
2013-04-19 02:17:00,65.8,62.8,29.84,SE,145,1.0,5.0,90,0.00,,CLR,0.00,VWS V14.00,2013-04-19 06:17:00,
2013-04-19 02:22:00,65.8,62.8,29.84,SE,145,0.0,5.0,90,0.00,,CLR,0.00,VWS V14.00,2013-04-19 06:22:00,
2013-04-19 02:27:00,65.8,62.8,29.84,SE,126,0.0,5.0,90,0.00,,CLR,0.00,VWS V14.00,2013-04-19 06:27:00,
2013-04-19 02:32:00,65.8,62.8,29.84,ENE,75,2.0,4.0,90,0.00,,CLR,0.00,VWS V14.00,2013-04-19 06:32:00,
2013-04-19 02:37:00,65.8,62.8,29.84,SSE,156,4.0,4.0,90,0.00,,CLR,0.00,VWS V14.00,2013-04-19 06:37:00,
2013-04-19 02:42:00,65.9,63.2,29.84,SE,146,1.0,4.0,91,0.00,,CLR,0.00,VWS V14.00,2013-04-19 06:42:00,
2013-04-19 02:47:00,65.9,63.2,29.83,SSE,147,0.0,4.0,91,0.00,,CLR,0.00,VWS V14.00,2013-04-19 06:47:00,
2013-04-19 02:52:00,65.9,63.2,29.83,SSE,147,0.0,4.0,91,0.00,,CLR,0.00,VWS V14.00,2013-04-19 06:52:00,
2013-04-19 02:57:00,66.0,63.3,29.83,South,174,0.0,4.0,91,0.00,,CLR,0.00,VWS V14.00,2013-04-19 06:57:00,
2013-04-19 03:02:00,66.1,63.4,29.82,South,179,1.0,1.0,91,0.00,,CLR,0.00,VWS V14.00,2013-04-19 07:02:00,
2013-04-19 03:07:00,66.1,63.4,29.82,South,173,1.0,5.0,91,0.00,,CLR,0.00,VWS V14.00,2013-04-19 07:07:00,
2013-04-19 03:12:00,66.1,63.4,29.82,SSE,161,1.0,5.0,91,0.00,,CLR,0.00,VWS V14.00,2013-04-19 07:12:00,
2013-04-19 03:17:00,66.1,63.4,29.82,SSE,167,0.0,5.0,91,0.00,,CLR,0.00,VWS V14.00,2013-04-19 07:17:00,
2013-04-19 03:22:00,66.0,63.3,29.82,SSE,167,0.0,5.0,91,0.00,,CLR,0.00,VWS V14.00,2013-04-19 07:22:00,
2013-04-19 03:27:00,65.9,63.2,29.82,SSE,167,1.0,5.0,91,0.00,,CLR,0.00,VWS V14.00,2013-04-19 07:27:00,
2013-04-19 03:32:00,65.9,63.2,29.82,SSE,167,0.0,2.0,91,0.00,,CLR,0.00,VWS V14.00,2013-04-19 07:32:00,
2013-04-19 03:37:00,65.9,63.2,29.82,SSE,165,1.0,5.0,91,0.00,,CLR,0.00,VWS V14.00,2013-04-19 07:37:00,
2013-04-19 03:42:00,65.9,63.2,29.82,SSE,165,1.0,5.0,91,0.00,,CLR,0.00,VWS V14.00,2013-04-19 07:42:00,
2013-04-19 03:47:00,65.9,63.2,29.82,SSE,164,0.0,5.0,91,0.00,,CLR,0.00,VWS V14.00,2013-04-19 07:47:00,
2013-04-19 03:52:00,65.9,63.2,29.82,SSE,158,1.0,6.0,91,0.00,,CLR,0.00,VWS V14.00,2013-04-19 07:52:00,
2013-04-19 03:57:00,65.9,63.2,29.82,SSE,158,0.0,6.0,91,0.00,,CLR,0.00,VWS V14.00,2013-04-19 07:57:00,
2013-04-19 04:02:00,65.9,63.2,29.81,ESE,122,0.0,2.0,91,0.00,,CLR,0.00,VWS V14.00,2013-04-19 08:02:00,
2013-04-19 04:07:00,65.9,63.5,29.81,SSE,159,0.0,5.0,92,0.00,,CLR,0.00,VWS V14.00,2013-04-19 08:07:00,
2013-04-19 04:12:00,65.8,63.4,29.81,SSE,159,1.0,5.0,92,0.00,,CLR,0.00,VWS V14.00,2013-04-19 08:12:00,
2013-04-19 04:17:00,65.8,63.4,29.81,South,169,0.0,5.0,92,0.00,,CLR,0.00,VWS V14.00,2013-04-19 08:17:00,
2013-04-19 04:22:00,65.8,63.4,29.81,SSE,158,1.0,5.0,92,0.00,,CLR,0.00,VWS V14.00,2013-04-19 08:22:00,
2013-04-19 04:27:00,65.7,63.3,29.81,SSE,159,1.0,5.0,92,0.00,,CLR,0.00,VWS V14.00,2013-04-19 08:27:00,
2013-04-19 04:32:00,65.8,63.4,29.80,SSE,159,0.0,3.0,92,0.00,,CLR,0.00,VWS V14.00,2013-04-19 08:32:00,
2013-04-19 04:37:00,65.8,63.4,29.80,SSE,155,0.0,3.0,92,0.00,,CLR,0.00,VWS V14.00,2013-04-19 08:37:00,
2013-04-19 04:42:00,65.8,63.4,29.80,SSE,155,0.0,4.0,92,0.00,,CLR,0.00,VWS V14.00,2013-04-19 08:42:00,
2013-04-19 04:47:00,65.7,63.3,29.79,SSE,155,1.0,4.0,92,0.00,,CLR,0.00,VWS V14.00,2013-04-19 08:47:00,
2013-04-19 04:52:00,65.8,63.4,29.79,SSE,155,0.0,4.0,92,0.00,,CLR,0.00,VWS V14.00,2013-04-19 08:52:00,
2013-04-19 04:57:00,65.7,63.3,29.79,SSE,155,0.0,4.0,92,0.00,,CLR,0.00,VWS V14.00,2013-04-19 08:57:00,
2013-04-19 05:02:00,65.7,63.3,29.78,South,179,0.0,4.0,92,0.00,,CLR,0.00,VWS V14.00,2013-04-19 09:02:00,
2013-04-19 05:07:00,65.7,63.3,29.78,SE,145,0.0,5.0,92,0.00,,CLR,0.00,VWS V14.00,2013-04-19 09:07:00,
2013-04-19 05:12:00,65.7,63.3,29.78,SSE,147,0.0,5.0,92,0.00,,CLR,0.00,VWS V14.00,2013-04-19 09:12:00,
2013-04-19 05:17:00,65.6,63.2,29.77,SSW,212,0.0,5.0,92,0.00,,CLR,0.00,VWS V14.00,2013-04-19 09:17:00,
2013-04-19 05:22:00,65.6,63.5,29.77,South,186,0.0,5.0,93,0.00,,CLR,0.00,VWS V14.00,2013-04-19 09:22:00,
2013-04-19 05:27:00,65.5,63.1,29.77,SE,146,0.0,5.0,92,0.00,,CLR,0.00,VWS V14.00,2013-04-19 09:27:00,
2013-04-19 05:32:00,65.4,63.0,29.78,South,172,0.0,2.0,92,0.00,,CLR,0.00,VWS V14.00,2013-04-19 09:32:00,
2013-04-19 05:37:00,65.4,63.0,29.78,South,172,0.0,2.0,92,0.00,,CLR,0.00,VWS V14.00,2013-04-19 09:37:00,
2013-04-19 05:42:00,65.4,63.0,29.78,SSE,153,0.0,2.0,92,0.00,,CLR,0.00,VWS V14.00,2013-04-19 09:42:00,
2013-04-19 05:47:00,65.4,63.3,29.79,SSE,153,3.0,3.0,93,0.00,,CLR,0.00,VWS V14.00,2013-04-19 09:47:00,
2013-04-19 05:52:00,65.5,63.4,29.79,SSE,153,0.0,3.0,93,0.00,,CLR,0.00,VWS V14.00,2013-04-19 09:52:00,
2013-04-19 05:57:00,65.5,63.4,29.79,SSW,196,0.0,3.0,93,0.00,,CLR,0.00,VWS V14.00,2013-04-19 09:57:00,
2013-04-19 06:02:00,65.5,63.1,29.79,SSW,197,0.0,3.0,92,0.00,,CLR,0.00,VWS V14.00,2013-04-19 10:02:00,
2013-04-19 06:07:00,65.6,63.2,29.79,SSW,195,4.0,4.0,92,0.00,,CLR,0.00,VWS V14.00,2013-04-19 10:07:00,
2013-04-19 06:12:00,65.6,63.2,29.79,SSW,196,2.0,4.0,92,0.00,,CLR,0.00,VWS V14.00,2013-04-19 10:12:00,
2013-04-19 06:17:00,65.7,63.3,29.79,WNW,283,1.0,5.0,92,0.00,,CLR,0.00,VWS V14.00,2013-04-19 10:17:00,
2013-04-19 06:22:00,65.7,63.3,29.79,SW,217,2.0,5.0,92,0.00,,CLR,0.00,VWS V14.00,2013-04-19 10:22:00,
2013-04-19 06:27:00,65.7,63.3,29.79,SSE,162,0.0,5.0,92,0.00,,CLR,0.00,VWS V14.00,2013-04-19 10:27:00,
2013-04-19 06:32:00,65.8,63.4,29.78,SSE,165,0.0,4.0,92,0.00,,CLR,0.00,VWS V14.00,2013-04-19 10:32:00,
2013-04-19 06:37:00,65.8,63.4,29.78,SSE,152,0.0,4.0,92,0.00,,CLR,0.00,VWS V14.00,2013-04-19 10:37:00,
2013-04-19 06:42:00,65.8,63.4,29.78,SSE,153,3.0,4.0,92,0.00,,CLR,0.00,VWS V14.00,2013-04-19 10:42:00,
2013-04-19 06:47:00,65.8,63.4,29.78,SE,141,1.0,5.0,92,0.00,,CLR,0.00,VWS V14.00,2013-04-19 10:47:00,
2013-04-19 06:52:00,65.9,63.5,29.78,South,180,3.0,5.0,92,0.00,,CLR,0.00,VWS V14.00,2013-04-19 10:52:00,
2013-04-19 06:57:00,65.9,63.5,29.78,South,180,0.0,5.0,92,0.00,,CLR,0.00,VWS V14.00,2013-04-19 10:57:00,
2013-04-19 07:02:00,65.9,63.5,29.79,South,180,0.0,2.0,92,0.00,,CLR,0.00,VWS V14.00,2013-04-19 11:02:00,
2013-04-19 07:07:00,65.9,63.8,29.79,South,180,2.0,3.0,93,0.00,,CLR,0.00,VWS V14.00,2013-04-19 11:07:00,
2013-04-19 07:12:00,65.9,63.8,29.79,South,176,0.0,4.0,93,0.00,,CLR,0.00,VWS V14.00,2013-04-19 11:12:00,
2013-04-19 07:17:00,65.9,63.8,29.79,South,173,1.0,6.0,93,0.00,,CLR,0.00,VWS V14.00,2013-04-19 11:17:00,
2013-04-19 07:22:00,66.0,63.9,29.79,South,187,3.0,6.0,93,0.00,,CLR,0.00,VWS V14.00,2013-04-19 11:22:00,
2013-04-19 07:27:00,66.0,63.9,29.79,South,186,1.0,6.0,93,0.00,,CLR,0.00,VWS V14.00,2013-04-19 11:27:00,
2013-04-19 07:32:00,66.0,63.9,29.80,South,186,0.0,4.0,93,0.00,,CLR,0.00,VWS V14.00,2013-04-19 11:32:00,
2013-04-19 07:37:00,66.1,64.0,29.80,SE,139,6.0,6.0,93,0.00,,CLR,0.00,VWS V14.00,2013-04-19 11:37:00,
2013-04-19 07:42:00,66.1,64.0,29.80,SSE,151,2.0,6.0,93,0.00,,CLR,0.00,VWS V14.00,2013-04-19 11:42:00,
2013-04-19 07:47:00,66.1,64.0,29.80,SSE,150,3.0,6.0,93,0.00,,CLR,0.00,VWS V14.00,2013-04-19 11:47:00,
2013-04-19 07:52:00,66.2,64.4,29.80,SSE,149,0.0,6.0,94,0.00,,CLR,0.00,VWS V14.00,2013-04-19 11:52:00,
2013-04-19 07:57:00,66.3,64.2,29.80,SSE,150,2.0,6.0,93,0.00,,CLR,0.00,VWS V14.00,2013-04-19 11:57:00,
2013-04-19 08:02:00,66.3,64.2,29.80,SSE,150,2.0,3.0,93,0.00,,CLR,0.00,VWS V14.00,2013-04-19 12:02:00,
2013-04-19 08:07:00,66.4,64.3,29.80,SSE,148,3.0,5.0,93,0.00,,CLR,0.00,VWS V14.00,2013-04-19 12:07:00,
2013-04-19 08:12:00,66.5,64.1,29.80,SSE,155,1.0,5.0,92,0.00,,CLR,0.00,VWS V14.00,2013-04-19 12:12:00,
2013-04-19 08:16:00,66.6,64.2,29.80,SSE,147,2.0,5.0,92,0.00,,CLR,0.00,VWS V14.00,2013-04-19 12:16:00,
2013-04-19 08:21:00,66.8,64.4,29.80,SSE,154,0.0,5.0,92,0.00,,CLR,0.00,VWS V14.00,2013-04-19 12:21:00,
2013-04-19 08:26:00,67.1,64.7,29.80,SSE,155,1.0,9.0,92,0.00,,CLR,0.00,VWS V14.00,2013-04-19 12:26:00,
2013-04-19 08:31:00,67.4,65.0,29.80,SSE,154,0.0,5.0,92,0.00,,CLR,0.00,VWS V14.00,2013-04-19 12:31:00,
2013-04-19 08:36:00,67.5,64.8,29.80,SSE,155,2.0,5.0,91,0.00,,CLR,0.00,VWS V14.00,2013-04-19 12:36:00,
2013-04-19 08:41:00,67.5,64.8,29.80,SE,138,1.0,5.0,91,0.00,,CLR,0.00,VWS V14.00,2013-04-19 12:41:00,
2013-04-19 08:47:00,67.5,64.8,29.79,SSE,150,0.0,5.0,91,0.00,,CLR,0.00,VWS V14.00,2013-04-19 12:47:00,
2013-04-19 08:52:00,67.8,65.1,29.79,SSW,200,2.0,5.0,91,0.00,,CLR,0.00,VWS V14.00,2013-04-19 12:52:00,
2013-04-19 08:57:00,68.1,65.4,29.79,SSE,161,4.0,5.0,91,0.00,,CLR,0.00,VWS V14.00,2013-04-19 12:57:00,
2013-04-19 09:02:00,68.3,65.3,29.78,SSE,163,0.0,4.0,90,0.00,,CLR,0.00,VWS V14.00,2013-04-19 13:02:00,
2013-04-19 09:07:00,68.3,65.3,29.78,SSE,163,1.0,4.0,90,0.00,,CLR,0.00,VWS V14.00,2013-04-19 13:07:00,
2013-04-19 09:12:00,68.1,65.1,29.78,SSE,154,0.0,4.0,90,0.00,,CLR,0.00,VWS V14.00,2013-04-19 13:12:00,
2013-04-19 09:17:00,68.0,65.3,29.77,SSE,154,0.0,5.0,91,0.00,,CLR,0.00,VWS V14.00,2013-04-19 13:17:00,
2013-04-19 09:22:00,68.1,65.4,29.77,SSE,159,1.0,5.0,91,0.00,,CLR,0.00,VWS V14.00,2013-04-19 13:22:00,
2013-04-19 09:27:00,68.3,65.9,29.77,SE,141,1.0,5.0,92,0.00,,CLR,0.00,VWS V14.00,2013-04-19 13:27:00,
2013-04-19 09:32:00,68.3,65.6,29.77,SSE,153,3.0,5.0,91,0.00,,CLR,0.00,VWS V14.00,2013-04-19 13:32:00,
2013-04-19 09:37:00,68.2,65.2,29.77,SSE,154,3.0,5.0,90,0.00,,CLR,0.00,VWS V14.00,2013-04-19 13:37:00,
2013-04-19 09:42:00,68.1,65.4,29.77,SSE,160,1.0,6.0,91,0.00,,CLR,0.00,VWS V14.00,2013-04-19 13:42:00,
2013-04-19 09:47:00,67.9,65.2,29.78,SSE,157,2.0,6.0,91,0.00,,CLR,0.00,VWS V14.00,2013-04-19 13:47:00,
2013-04-19 09:52:00,67.8,65.4,29.78,SSE,168,1.0,6.0,92,0.00,,CLR,0.00,VWS V14.00,2013-04-19 13:52:00,
2013-04-19 09:57:00,68.0,65.6,29.78,SE,134,0.0,6.0,92,0.00,,CLR,0.00,VWS V14.00,2013-04-19 13:57:00,
2013-04-19 10:02:00,68.4,66.0,29.77,SSE,155,1.0,5.0,92,0.00,,CLR,0.00,VWS V14.00,2013-04-19 14:02:00,
2013-04-19 10:07:00,68.8,66.1,29.77,SSE,150,3.0,5.0,91,0.00,,CLR,0.00,VWS V14.00,2013-04-19 14:07:00,
2013-04-19 10:12:00,69.6,66.9,29.77,SSE,162,3.0,5.0,91,0.00,,CLR,0.00,VWS V14.00,2013-04-19 14:12:00,
2013-04-19 10:17:00,70.6,66.9,29.76,SSE,150,4.0,5.0,88,0.00,,CLR,0.00,VWS V14.00,2013-04-19 14:17:00,
2013-04-19 10:22:00,70.9,67.2,29.76,SSE,152,1.0,7.0,88,0.00,,CLR,0.00,VWS V14.00,2013-04-19 14:22:00,
2013-04-19 10:27:00,70.7,66.3,29.76,SSE,165,3.0,7.0,86,0.00,,CLR,0.00,VWS V14.00,2013-04-19 14:27:00,
2013-04-19 10:32:00,70.4,66.0,29.76,SSW,194,4.0,6.0,86,0.00,,CLR,0.00,VWS V14.00,2013-04-19 14:32:00,
2013-04-19 10:37:00,70.2,66.2,29.76,SSE,155,2.0,6.0,87,0.00,,CLR,0.00,VWS V14.00,2013-04-19 14:37:00,
2013-04-19 10:42:00,70.1,66.1,29.76,SSE,148,3.0,6.0,87,0.00,,CLR,0.00,VWS V14.00,2013-04-19 14:42:00,
2013-04-19 10:47:00,69.9,66.2,29.76,SSE,167,1.0,9.0,88,0.00,,CLR,0.00,VWS V14.00,2013-04-19 14:47:00,
2013-04-19 10:52:00,69.5,66.4,29.76,SE,139,1.0,9.0,90,0.00,,CLR,0.00,VWS V14.00,2013-04-19 14:52:00,
2013-04-19 10:57:00,69.6,66.9,29.76,SSE,159,4.0,9.0,91,0.00,,CLR,0.00,VWS V14.00,2013-04-19 14:57:00,
2013-04-19 11:02:00,69.9,66.5,29.75,SSE,152,2.0,10.0,89,0.00,,CLR,0.00,VWS V14.00,2013-04-19 15:02:00,
2013-04-19 11:07:00,70.3,67.2,29.75,SSE,167,0.0,10.0,90,0.00,,CLR,0.00,VWS V14.00,2013-04-19 15:07:00,
2013-04-19 11:12:00,70.4,67.0,29.75,South,191,2.0,10.0,89,0.00,,CLR,0.00,VWS V14.00,2013-04-19 15:12:00,
2013-04-19 11:17:00,70.4,66.7,29.74,SE,139,1.0,10.0,88,0.00,,CLR,0.00,VWS V14.00,2013-04-19 15:17:00,
2013-04-19 11:22:00,70.5,66.8,29.74,South,186,0.0,10.0,88,0.00,,CLR,0.00,VWS V14.00,2013-04-19 15:22:00,
2013-04-19 11:27:00,70.6,66.6,29.74,SE,136,0.0,11.0,87,0.00,,CLR,0.00,VWS V14.00,2013-04-19 15:27:00,
2013-04-19 11:32:00,70.7,66.7,29.74,SSE,155,0.0,4.0,87,0.00,,CLR,0.00,VWS V14.00,2013-04-19 15:32:00,
2013-04-19 11:37:00,70.8,66.7,29.74,SSE,155,4.0,4.0,87,0.00,,CLR,0.00,VWS V14.00,2013-04-19 15:37:00,
2013-04-19 11:42:00,71.0,66.6,29.74,South,187,3.0,5.0,86,0.00,,CLR,0.00,VWS V14.00,2013-04-19 15:42:00,
2013-04-19 11:47:00,71.1,66.7,29.73,South,170,3.0,6.0,86,0.00,,CLR,0.00,VWS V14.00,2013-04-19 15:47:00,
2013-04-19 11:52:00,71.4,66.7,29.73,SSE,158,1.0,7.0,85,0.00,,CLR,0.00,VWS V14.00,2013-04-19 15:52:00,
2013-04-19 11:57:00,71.6,66.5,29.73,SSE,163,2.0,7.0,84,0.00,,CLR,0.00,VWS V14.00,2013-04-19 15:57:00,
2013-04-19 12:02:00,71.6,66.5,29.71,SSE,147,3.0,9.0,84,0.00,,CLR,0.00,VWS V14.00,2013-04-19 16:02:00,
2013-04-19 12:07:00,71.5,66.8,29.71,SSE,155,3.0,9.0,85,0.00,,CLR,0.00,VWS V14.00,2013-04-19 16:07:00,
2013-04-19 12:12:00,71.3,66.2,29.71,South,174,2.0,9.0,84,0.00,,CLR,0.00,VWS V14.00,2013-04-19 16:12:00,
2013-04-19 12:17:00,71.5,66.8,29.71,South,183,2.0,9.0,85,0.00,,CLR,0.00,VWS V14.00,2013-04-19 16:17:00,
2013-04-19 12:22:00,71.8,66.4,29.71,SSE,167,2.0,9.0,83,0.00,,CLR,0.00,VWS V14.00,2013-04-19 16:22:00,
2013-04-19 12:27:00,72.2,66.4,29.71,SSE,166,4.0,9.0,82,0.00,,CLR,0.00,VWS V14.00,2013-04-19 16:27:00,
2013-04-19 12:32:00,72.6,66.4,29.70,SSE,158,2.0,5.0,81,0.00,,CLR,0.00,VWS V14.00,2013-04-19 16:32:00,
2013-04-19 12:37:00,73.1,66.9,29.70,South,179,5.0,8.0,81,0.00,,CLR,0.00,VWS V14.00,2013-04-19 16:37:00,
2013-04-19 12:42:00,73.3,66.8,29.70,SSE,153,2.0,8.0,80,0.00,,CLR,0.00,VWS V14.00,2013-04-19 16:42:00,
2013-04-19 12:47:00,73.2,66.7,29.69,SSW,198,1.0,8.0,80,0.00,,CLR,0.00,VWS V14.00,2013-04-19 16:47:00,
2013-04-19 12:52:00,73.2,66.7,29.69,SSE,166,1.0,9.0,80,0.00,,CLR,0.00,VWS V14.00,2013-04-19 16:52:00,
2013-04-19 12:57:00,73.0,66.5,29.69,SSW,207,5.0,9.0,80,0.00,,CLR,0.00,VWS V14.00,2013-04-19 16:57:00,
2013-04-19 13:02:00,72.9,66.7,29.69,South,173,5.0,5.0,81,0.00,,CLR,0.00,VWS V14.00,2013-04-19 17:02:00,
2013-04-19 13:07:00,72.5,66.7,29.69,North,4,7.0,12.0,82,0.00,,CLR,0.00,VWS V14.00,2013-04-19 17:07:00,
2013-04-19 13:12:00,72.3,67.2,29.69,SSE,166,2.0,12.0,84,0.00,,CLR,0.00,VWS V14.00,2013-04-19 17:12:00,
2013-04-19 13:17:00,72.1,67.3,29.68,SSW,203,1.0,12.0,85,0.01,,CLR,0.01,VWS V14.00,2013-04-19 17:17:00,
2013-04-19 13:22:00,71.9,67.2,29.68,SSW,203,3.0,12.0,85,0.01,,CLR,0.01,VWS V14.00,2013-04-19 17:22:00,
2013-04-19 13:27:00,71.8,66.7,29.68,SSE,155,2.0,12.0,84,0.01,,CLR,0.01,VWS V14.00,2013-04-19 17:27:00,
2013-04-19 13:32:00,72.0,66.9,29.68,SSW,196,2.0,5.0,84,0.01,,CLR,0.01,VWS V14.00,2013-04-19 17:32:00,
2013-04-19 13:36:00,72.0,66.9,29.68,SSE,153,2.0,7.0,84,0.01,,CLR,0.01,VWS V14.00,2013-04-19 17:36:00,
2013-04-19 13:41:00,71.9,66.8,29.68,South,174,4.0,7.0,84,0.01,,CLR,0.01,VWS V14.00,2013-04-19 17:41:00,
2013-04-19 13:46:00,71.6,67.2,29.69,SSE,165,4.0,7.0,86,0.01,,CLR,0.01,VWS V14.00,2013-04-19 17:46:00,
2013-04-19 13:51:00,71.3,66.9,29.69,SSE,158,3.0,7.0,86,0.01,,CLR,0.01,VWS V14.00,2013-04-19 17:51:00,
2013-04-19 13:56:00,71.3,67.2,29.69,SSE,148,5.0,10.0,87,0.01,,CLR,0.01,VWS V14.00,2013-04-19 17:56:00,
2013-04-19 14:01:00,71.4,67.0,29.69,SSE,162,2.0,5.0,86,0.01,,CLR,0.01,VWS V14.00,2013-04-19 18:01:00,
2013-04-19 14:06:00,71.6,66.9,29.69,SSE,163,4.0,6.0,85,0.01,,CLR,0.01,VWS V14.00,2013-04-19 18:06:00,
2013-04-19 14:11:00,71.8,67.1,29.69,SSE,166,4.0,6.0,85,0.01,,CLR,0.01,VWS V14.00,2013-04-19 18:11:00,
2013-04-19 14:16:00,71.8,67.4,29.70,South,176,4.0,11.0,86,0.01,,CLR,0.01,VWS V14.00,2013-04-19 18:16:00,
2013-04-19 14:21:00,71.1,67.7,29.70,SSE,162,2.0,11.0,89,0.04,,CLR,0.04,VWS V14.00,2013-04-19 18:21:00,
2013-04-19 14:26:00,70.2,67.4,29.70,SSE,164,2.0,11.0,91,0.05,,CLR,0.05,VWS V14.00,2013-04-19 18:26:00,
2013-04-19 14:31:00,69.5,67.1,29.72,South,174,4.0,8.0,92,0.04,,CLR,0.05,VWS V14.00,2013-04-19 18:31:00,
2013-04-19 14:36:00,69.0,66.9,29.72,South,172,3.0,16.0,93,0.05,,CLR,0.06,VWS V14.00,2013-04-19 18:36:00,
2013-04-19 14:41:00,68.6,66.5,29.72,South,184,3.0,16.0,93,0.06,,CLR,0.07,VWS V14.00,2013-04-19 18:41:00,
2013-04-19 14:46:00,68.4,66.6,29.72,South,188,3.0,16.0,94,0.07,,CLR,0.08,VWS V14.00,2013-04-19 18:46:00,
2013-04-19 14:51:00,68.2,66.4,29.72,SSW,194,0.0,16.0,94,0.09,,CLR,0.10,VWS V14.00,2013-04-19 18:51:00,
2013-04-19 14:56:00,68.0,66.2,29.72,SSE,151,1.0,16.0,94,0.10,,CLR,0.11,VWS V14.00,2013-04-19 18:56:00,
2013-04-19 15:01:00,67.9,66.4,29.71,SSE,160,4.0,5.0,95,0.11,,CLR,0.12,VWS V14.00,2013-04-19 19:01:00,
2013-04-19 15:06:00,67.9,66.4,29.71,SSW,193,2.0,9.0,95,0.11,,CLR,0.12,VWS V14.00,2013-04-19 19:06:00,
2013-04-19 15:11:00,67.9,66.4,29.71,West,267,9.0,9.0,95,0.12,,CLR,0.13,VWS V14.00,2013-04-19 19:11:00,
2013-04-19 15:16:00,67.8,66.3,29.71,SSE,150,2.0,11.0,95,0.13,,CLR,0.14,VWS V14.00,2013-04-19 19:16:00,
2013-04-19 15:21:00,67.7,66.2,29.71,SSW,195,1.0,15.0,95,0.14,,CLR,0.15,VWS V14.00,2013-04-19 19:21:00,
2013-04-19 15:26:00,67.7,66.2,29.71,South,181,4.0,15.0,95,0.15,,CLR,0.16,VWS V14.00,2013-04-19 19:26:00,
2013-04-19 15:31:00,67.7,66.2,29.70,South,186,0.0,3.0,95,0.11,,CLR,0.16,VWS V14.00,2013-04-19 19:31:00,
2013-04-19 15:36:00,67.7,66.5,29.70,South,186,0.0,3.0,96,0.12,,CLR,0.17,VWS V14.00,2013-04-19 19:36:00,
2013-04-19 15:41:00,67.6,66.4,29.70,South,186,1.0,4.0,96,0.13,,CLR,0.18,VWS V14.00,2013-04-19 19:41:00,
2013-04-19 15:46:00,67.5,66.3,29.70,SSW,211,4.0,7.0,96,0.18,,CLR,0.23,VWS V14.00,2013-04-19 19:46:00,
2013-04-19 15:51:00,67.2,66.0,29.70,SSW,201,4.0,16.0,96,0.20,,CLR,0.25,VWS V14.00,2013-04-19 19:51:00,
2013-04-19 15:56:00,66.6,65.4,29.70,SW,214,9.0,16.0,96,0.20,,CLR,0.25,VWS V14.00,2013-04-19 19:56:00,
2013-04-19 16:01:00,66.3,64.8,29.71,South,169,5.0,20.0,95,0.15,,CLR,0.27,VWS V14.00,2013-04-19 20:01:00,
2013-04-19 16:06:00,66.0,64.8,29.71,SW,227,12.0,20.0,96,0.17,,CLR,0.29,VWS V14.00,2013-04-19 20:06:00,
2013-04-19 16:11:00,65.8,64.6,29.71,SSW,210,4.0,20.0,96,0.18,,CLR,0.30,VWS V14.00,2013-04-19 20:11:00,
2013-04-19 16:16:00,65.7,64.5,29.71,South,186,4.0,20.0,96,0.19,,CLR,0.31,VWS V14.00,2013-04-19 20:16:00,
2013-04-19 16:21:00,65.6,64.4,29.71,SSE,157,5.0,20.0,96,0.19,,CLR,0.31,VWS V14.00,2013-04-19 20:21:00,
2013-04-19 16:27:00,65.4,64.2,29.71,South,178,0.0,20.0,96,0.21,,CLR,0.33,VWS V14.00,2013-04-19 20:27:00,
2013-04-19 16:32:00,65.3,64.1,29.71,SSE,158,2.0,14.0,96,0.18,,CLR,0.34,VWS V14.00,2013-04-19 20:32:00,
2013-04-19 16:37:00,65.2,64.0,29.71,South,179,4.0,14.0,96,0.19,,CLR,0.35,VWS V14.00,2013-04-19 20:37:00,
2013-04-19 16:42:00,65.0,63.8,29.71,SSE,158,3.0,14.0,96,0.20,,CLR,0.36,VWS V14.00,2013-04-19 20:42:00,
2013-04-19 16:47:00,64.8,63.6,29.71,SSW,207,3.0,14.0,96,0.21,,CLR,0.37,VWS V14.00,2013-04-19 20:47:00,
2013-04-19 16:51:00,64.5,63.3,29.71,South,180,4.0,14.0,96,0.22,,CLR,0.38,VWS V14.00,2013-04-19 20:51:00,
2013-04-19 16:57:00,64.3,63.1,29.71,SSE,150,3.0,14.0,96,0.23,,CLR,0.39,VWS V14.00,2013-04-19 20:57:00,
2013-04-19 17:02:00,64.1,62.9,29.71,SSW,211,2.0,6.0,96,0.14,,CLR,0.40,VWS V14.00,2013-04-19 21:02:00,
2013-04-19 17:07:00,64.0,62.8,29.71,SSW,194,0.0,10.0,96,0.15,,CLR,0.41,VWS V14.00,2013-04-19 21:07:00,
2013-04-19 17:12:00,63.5,62.3,29.71,SSW,206,9.0,14.0,96,0.15,,CLR,0.41,VWS V14.00,2013-04-19 21:12:00,
2013-04-19 17:17:00,63.0,61.5,29.69,South,191,5.0,15.0,95,0.15,,CLR,0.41,VWS V14.00,2013-04-19 21:17:00,
2013-04-19 17:22:00,62.5,61.0,29.69,South,184,4.0,15.0,95,0.15,,CLR,0.41,VWS V14.00,2013-04-19 21:22:00,
2013-04-19 17:27:00,62.1,60.7,29.69,SSW,207,6.0,16.0,95,0.15,,CLR,0.41,VWS V14.00,2013-04-19 21:27:00,
2013-04-19 17:32:00,61.9,60.5,29.70,SSW,194,3.0,4.0,95,0.08,,CLR,0.41,VWS V14.00,2013-04-19 21:32:00,
2013-04-19 17:37:00,61.6,60.2,29.70,SSW,201,4.0,9.0,95,0.08,,CLR,0.41,VWS V14.00,2013-04-19 21:37:00,
2013-04-19 17:42:00,61.4,60.0,29.70,SSW,198,4.0,13.0,95,0.08,,CLR,0.41,VWS V14.00,2013-04-19 21:42:00,
2013-04-19 17:47:00,61.4,60.0,29.70,South,185,4.0,13.0,95,0.08,,CLR,0.41,VWS V14.00,2013-04-19 21:47:00,
2013-04-19 17:52:00,61.4,60.2,29.70,SSE,165,1.0,13.0,96,0.08,,CLR,0.41,VWS V14.00,2013-04-19 21:52:00,
2013-04-19 17:57:00,61.4,60.2,29.70,SSE,167,2.0,13.0,96,0.08,,CLR,0.41,VWS V14.00,2013-04-19 21:57:00,
2013-04-19 18:02:00,61.3,60.2,29.68,SSE,160,2.0,3.0,96,0.01,,CLR,0.41,VWS V14.00,2013-04-19 22:02:00,
2013-04-19 18:07:00,61.1,60.0,29.68,SSE,159,2.0,3.0,96,0.01,,CLR,0.41,VWS V14.00,2013-04-19 22:07:00,
2013-04-19 18:12:00,60.9,59.8,29.68,South,176,3.0,6.0,96,0.01,,CLR,0.41,VWS V14.00,2013-04-19 22:12:00,
2013-04-19 18:17:00,60.7,59.6,29.68,South,169,4.0,6.0,96,0.01,,CLR,0.41,VWS V14.00,2013-04-19 22:17:00,
2013-04-19 18:22:00,60.5,59.1,29.68,South,179,3.0,6.0,95,0.01,,CLR,0.41,VWS V14.00,2013-04-19 22:22:00,
2013-04-19 18:27:00,60.2,58.8,29.68,South,171,5.0,11.0,95,0.01,,CLR,0.41,VWS V14.00,2013-04-19 22:27:00,
2013-04-19 18:32:00,59.8,58.1,29.71,SSW,207,4.0,21.0,94,0.01,,CLR,0.42,VWS V14.00,2013-04-19 22:32:00,
2013-04-19 18:37:00,59.5,57.8,29.71,South,190,4.0,21.0,94,0.01,,CLR,0.42,VWS V14.00,2013-04-19 22:37:00,
2013-04-19 18:42:00,59.1,57.4,29.71,South,190,4.0,21.0,94,0.01,,CLR,0.42,VWS V14.00,2013-04-19 22:42:00,
2013-04-19 18:47:00,59.0,57.3,29.68,South,179,0.0,21.0,94,0.01,,CLR,0.42,VWS V14.00,2013-04-19 22:47:00,
2013-04-19 18:52:00,58.8,57.1,29.68,South,189,2.0,21.0,94,0.01,,CLR,0.42,VWS V14.00,2013-04-19 22:52:00,
2013-04-19 18:57:00,58.4,56.7,29.68,SSW,195,2.0,21.0,94,0.01,,CLR,0.42,VWS V14.00,2013-04-19 22:57:00,
2013-04-19 19:01:00,58.2,56.5,29.69,WSW,238,3.0,3.0,94,0.01,,CLR,0.42,VWS V14.00,2013-04-19 23:01:00,
2013-04-19 19:06:00,58.0,56.3,29.69,South,185,4.0,9.0,94,0.01,,CLR,0.42,VWS V14.00,2013-04-19 23:06:00,
2013-04-19 19:11:00,57.8,56.1,29.69,SSW,198,3.0,9.0,94,0.01,,CLR,0.42,VWS V14.00,2013-04-19 23:11:00,
2013-04-19 19:16:00,57.5,55.5,29.69,SSW,210,4.0,17.0,93,0.01,,CLR,0.42,VWS V14.00,2013-04-19 23:16:00,
2013-04-19 19:21:00,57.1,55.1,29.69,SSW,193,6.0,17.0,93,0.01,,CLR,0.42,VWS V14.00,2013-04-19 23:21:00,
2013-04-19 19:26:00,56.8,54.8,29.69,South,174,3.0,17.0,93,0.01,,CLR,0.42,VWS V14.00,2013-04-19 23:26:00,
2013-04-19 19:31:00,56.5,54.5,29.70,SSE,158,0.0,1.0,93,0.00,,CLR,0.42,VWS V14.00,2013-04-19 23:31:00,
2013-04-19 19:37:00,56.3,54.6,29.70,SE,146,0.0,10.0,94,0.01,,CLR,0.43,VWS V14.00,2013-04-19 23:37:00,
2013-04-19 19:42:00,56.0,54.3,29.70,South,174,3.0,10.0,94,0.01,,CLR,0.43,VWS V14.00,2013-04-19 23:42:00,
2013-04-19 19:47:00,55.8,54.1,29.69,SW,217,6.0,12.0,94,0.01,,CLR,0.43,VWS V14.00,2013-04-19 23:47:00,
2013-04-19 19:52:00,55.6,53.9,29.69,SW,218,7.0,12.0,94,0.01,,CLR,0.43,VWS V14.00,2013-04-19 23:52:00,
2013-04-19 19:57:00,55.5,53.8,29.69,South,187,1.0,12.0,94,0.01,,CLR,0.43,VWS V14.00,2013-04-19 23:57:00,
2013-04-19 20:02:00,55.5,53.8,29.70,South,188,2.0,2.0,94,0.01,,CLR,0.43,VWS V14.00,2013-04-20 00:02:00,
2013-04-19 20:07:00,55.4,53.7,29.70,South,183,2.0,11.0,94,0.01,,CLR,0.43,VWS V14.00,2013-04-20 00:07:00,
2013-04-19 20:12:00,55.4,54.0,29.70,SSW,201,2.0,11.0,95,0.01,,CLR,0.43,VWS V14.00,2013-04-20 00:12:00,
2013-04-19 20:17:00,55.3,53.9,29.71,SSW,202,2.0,11.0,95,0.01,,CLR,0.43,VWS V14.00,2013-04-20 00:17:00,
2013-04-19 20:22:00,55.3,53.9,29.71,South,179,3.0,11.0,95,0.01,,CLR,0.43,VWS V14.00,2013-04-20 00:22:00,
2013-04-19 20:27:00,55.2,53.8,29.71,South,181,2.0,11.0,95,0.01,,CLR,0.43,VWS V14.00,2013-04-20 00:27:00,
2013-04-19 20:32:00,55.1,53.7,29.73,South,180,3.0,10.0,95,0.01,,CLR,0.43,VWS V14.00,2013-04-20 00:32:00,
2013-04-19 20:37:00,55.1,53.7,29.73,SSE,168,3.0,10.0,95,0.01,,CLR,0.43,VWS V14.00,2013-04-20 00:37:00,
2013-04-19 20:42:00,55.0,53.6,29.73,SSE,162,5.0,11.0,95,0.01,,CLR,0.43,VWS V14.00,2013-04-20 00:42:00,
2013-04-19 20:47:00,54.9,53.5,29.73,SW,218,3.0,11.0,95,0.01,,CLR,0.43,VWS V14.00,2013-04-20 00:47:00,
2013-04-19 20:52:00,54.8,53.4,29.73,South,188,5.0,11.0,95,0.01,,CLR,0.43,VWS V14.00,2013-04-20 00:52:00,
2013-04-19 20:57:00,54.8,53.4,29.73,South,183,1.0,11.0,95,0.01,,CLR,0.43,VWS V14.00,2013-04-20 00:57:00,
2013-04-19 21:02:00,54.7,53.3,29.74,SSE,159,0.0,3.0,95,0.00,,CLR,0.43,VWS V14.00,2013-04-20 01:02:00,
2013-04-19 21:07:00,54.6,53.2,29.74,South,176,4.0,10.0,95,0.00,,CLR,0.43,VWS V14.00,2013-04-20 01:07:00,
2013-04-19 21:12:00,54.6,53.2,29.74,South,179,2.0,10.0,95,0.00,,CLR,0.43,VWS V14.00,2013-04-20 01:12:00,
2013-04-19 21:17:00,54.5,53.1,29.74,South,174,2.0,10.0,95,0.00,,CLR,0.43,VWS V14.00,2013-04-20 01:17:00,
2013-04-19 21:22:00,54.4,53.0,29.74,SSW,200,3.0,10.0,95,0.00,,CLR,0.43,VWS V14.00,2013-04-20 01:22:00,
2013-04-19 21:27:00,54.2,52.8,29.74,SW,228,3.0,10.0,95,0.00,,CLR,0.43,VWS V14.00,2013-04-20 01:27:00,
2013-04-19 21:32:00,54.2,52.8,29.74,WSW,253,2.0,3.0,95,0.00,,CLR,0.43,VWS V14.00,2013-04-20 01:32:00,
2013-04-19 21:37:00,54.1,52.7,29.74,SSE,164,4.0,6.0,95,0.00,,CLR,0.43,VWS V14.00,2013-04-20 01:37:00,
2013-04-19 21:42:00,54.1,52.7,29.74,South,173,3.0,6.0,95,0.00,,CLR,0.43,VWS V14.00,2013-04-20 01:42:00,
2013-04-19 21:47:00,54.0,52.6,29.76,South,190,6.0,6.0,95,0.00,,CLR,0.43,VWS V14.00,2013-04-20 01:47:00,
2013-04-19 21:52:00,54.0,52.6,29.76,South,172,4.0,12.0,95,0.00,,CLR,0.43,VWS V14.00,2013-04-20 01:52:00,
2013-04-19 21:57:00,53.9,52.5,29.76,South,187,4.0,12.0,95,0.00,,CLR,0.43,VWS V14.00,2013-04-20 01:57:00,
2013-04-19 22:02:00,53.8,52.4,29.77,SE,128,9.0,12.0,95,0.00,,CLR,0.43,VWS V14.00,2013-04-20 02:02:00,
2013-04-19 22:07:00,53.8,52.4,29.77,SSW,199,0.0,12.0,95,0.00,,CLR,0.43,VWS V14.00,2013-04-20 02:07:00,
2013-04-19 22:12:00,53.7,52.3,29.77,SSW,199,4.0,12.0,95,0.00,,CLR,0.43,VWS V14.00,2013-04-20 02:12:00,
2013-04-19 22:17:00,53.7,52.3,29.79,SSW,196,4.0,12.0,95,0.00,,CLR,0.43,VWS V14.00,2013-04-20 02:17:00,
2013-04-19 22:22:00,53.7,52.3,29.79,SSW,195,6.0,12.0,95,0.00,,CLR,0.43,VWS V14.00,2013-04-20 02:22:00,
2013-04-19 22:27:00,53.6,52.2,29.79,South,182,3.0,12.0,95,0.00,,CLR,0.43,VWS V14.00,2013-04-20 02:27:00,
2013-04-19 22:32:00,53.6,52.2,29.81,South,181,4.0,10.0,95,0.00,,CLR,0.43,VWS V14.00,2013-04-20 02:32:00,
2013-04-19 22:37:00,53.5,51.8,29.81,SSW,197,4.0,10.0,94,0.00,,CLR,0.43,VWS V14.00,2013-04-20 02:37:00,
2013-04-19 22:42:00,53.5,51.8,29.81,South,174,6.0,12.0,94,0.00,,CLR,0.43,VWS V14.00,2013-04-20 02:42:00,
2013-04-19 22:47:00,53.4,51.7,29.81,South,189,5.0,13.0,94,0.00,,CLR,0.43,VWS V14.00,2013-04-20 02:47:00,
2013-04-19 22:52:00,53.4,52.0,29.81,SSW,196,14.0,14.0,95,0.00,,CLR,0.43,VWS V14.00,2013-04-20 02:52:00,
2013-04-19 22:57:00,53.3,51.9,29.81,South,191,2.0,14.0,95,0.00,,CLR,0.43,VWS V14.00,2013-04-20 02:57:00,
2013-04-19 23:02:00,53.3,51.9,29.82,South,188,6.0,12.0,95,0.00,,CLR,0.43,VWS V14.00,2013-04-20 03:02:00,
2013-04-19 23:07:00,53.2,51.8,29.82,SW,221,1.0,12.0,95,0.00,,CLR,0.43,VWS V14.00,2013-04-20 03:07:00,
2013-04-19 23:12:00,53.1,51.4,29.82,SSW,208,4.0,12.0,94,0.00,,CLR,0.43,VWS V14.00,2013-04-20 03:12:00,
2013-04-19 23:17:00,53.0,51.3,29.82,SSW,210,2.0,12.0,94,0.00,,CLR,0.43,VWS V14.00,2013-04-20 03:17:00,
2013-04-19 23:22:00,52.9,50.9,29.82,SSW,204,4.0,12.0,93,0.00,,CLR,0.43,VWS V14.00,2013-04-20 03:22:00,
2013-04-19 23:27:00,52.8,50.5,29.82,SSW,211,3.0,12.0,92,0.00,,CLR,0.43,VWS V14.00,2013-04-20 03:27:00,
2013-04-19 23:32:00,52.7,49.8,29.82,NW,314,0.0,10.0,90,0.00,,CLR,0.43,VWS V14.00,2013-04-20 03:32:00,
2013-04-19 23:37:00,52.5,48.4,29.82,West,274,4.0,10.0,86,0.00,,CLR,0.43,VWS V14.00,2013-04-20 03:37:00,
2013-04-19 23:42:00,52.2,46.5,29.82,West,277,0.0,10.0,81,0.00,,CLR,0.43,VWS V14.00,2013-04-20 03:42:00,
2013-04-19 23:47:00,52.1,45.5,29.83,WNW,287,4.0,10.0,78,0.00,,CLR,0.43,VWS V14.00,2013-04-20 03:47:00,
2013-04-19 23:52:00,51.9,45.3,29.83,WNW,285,0.0,10.0,78,0.00,,CLR,0.43,VWS V14.00,2013-04-20 03:52:00,
2013-04-19 23:57:00,51.6,45.0,29.83,WSW,250,3.0,10.0,78,0.00,,CLR,0.43,VWS V14.00,2013-04-20 03:57:00,